Weather History for Melfa, VA

Change the Weather History Date:

Thursday, October 20, 2011

  Actual Average (KWAL) Record (KWAL)
Temperature  
Mean Temperature 63 °F 58 °F  
Max Temperature 71 °F 67 °F 80 °F (1984)
Min Temperature 55 °F 49 °F 29 °F (1974)
Degree Days  
Heating Degree Days 2    
Month to date heating degree days  
Since 1 July heating degree days  
Cooling Degree Days 0    
Month to date cooling degree days  
Year to date cooling degree days  
Growing Degree Days 13 (Base 50)    
Moisture  
Dew Point 51 °F    
Average Humidity 69    
Maximum Humidity 88    
Minimum Humidity 52    
Precipitation  
Precipitation 0.00 in 0.09 in 1.06 in (1999)
Month to date precipitation 2.02  
Year to date precipitation 33.39  
Sea Level Pressure  
Sea Level Pressure 29.56 in    
Wind  
Wind Speed 16 mph (SW)    
Max Wind Speed 24 mph    
Max Gust Speed 37 mph    
Visibility 10 miles    
Events      
T = Trace of Precipitation, MM = Missing Value Source: NWS Daily Summary

Daily Weather History Graph

Daily Weather History Graph

Search for Another Location

Airport:

Trip Planner

Search our weather history database for the weather conditions in past years. The results will help you decide how hot, cold, wet, or windy it might be!

Date:

Astronomy

Oct. 20, 2011 Rise Set
Actual Time 7:15 AM EDT 6:19 PM EDT
Civil Twilight 6:49 AM EDT 6:45 PM EDT
Nautical Twilight 6:18 AM EDT 7:16 PM EDT
Astronomical Twilight 5:48 AM EDT 7:46 PM EDT
Moon 12:06 AM EDT (10/20) 2:19 PM EDT (10/20)
Length of Visible Light 11h 56m
Length of Day
11h 03m
Last Quarter, 44% of the Moon is Illuminated
Oct 20
Last Quarter
Oct 26
New
Nov 2
First Quarter
Nov 10
Full
Nov 18
Last Quarter

Hourly Weather History & Observations

Time (EDT) Temp. Dew Point Humidity Pressure Visibility Wind Dir Wind Speed Gust Speed Precip Events Conditions
12:15 AM 71.6 °F 68.0 °F 88% 29.36 in 10.0 mi SSW 6.9 mph - N/A   Unknown
12:35 AM 71.6 °F 66.2 °F 83% 29.37 in 10.0 mi SSW 11.5 mph 17.3 mph N/A   Unknown
12:55 AM 71.6 °F 66.2 °F 83% 29.37 in 10.0 mi South 6.9 mph - N/A   Unknown
1:15 AM 71.6 °F 64.4 °F 78% 29.37 in 10.0 mi SW 12.7 mph 18.4 mph N/A   Unknown
1:35 AM 71.6 °F 64.4 °F 78% 29.37 in 10.0 mi SW 11.5 mph 21.9 mph N/A   Unknown
1:55 AM 69.8 °F 64.4 °F 83% 29.38 in 10.0 mi SW 16.1 mph 23.0 mph N/A   Unknown
2:15 AM 69.8 °F 62.6 °F 78% 29.38 in 10.0 mi SSW 16.1 mph 25.3 mph N/A   Unknown
2:35 AM 66.2 °F 60.8 °F 83% 29.39 in 10.0 mi SW 16.1 mph 29.9 mph N/A   Unknown
2:55 AM 64.4 °F 57.2 °F 77% 29.40 in 10.0 mi SW 21.9 mph 27.6 mph N/A   Unknown
3:15 AM 62.6 °F 55.4 °F 77% 29.41 in 10.0 mi SW 23.0 mph 31.1 mph N/A   Unknown
3:35 AM 60.8 °F 53.6 °F 77% 29.42 in 10.0 mi SW 20.7 mph 36.8 mph N/A   Unknown
3:55 AM 60.8 °F 53.6 °F 77% 29.43 in 10.0 mi WSW 15.0 mph 27.6 mph N/A   Unknown
4:15 AM 59.0 °F 51.8 °F 77% 29.45 in 10.0 mi SW 16.1 mph 25.3 mph N/A   Unknown
4:35 AM 59.0 °F 51.8 °F 77% 29.47 in 10.0 mi SW 18.4 mph 25.3 mph N/A   Unknown
4:55 AM 59.0 °F 51.8 °F 77% 29.48 in 10.0 mi SW 19.6 mph 28.8 mph N/A   Unknown
5:15 AM 59.0 °F 51.8 °F 77% 29.49 in 10.0 mi SW 17.3 mph 31.1 mph N/A   Unknown
5:35 AM 57.2 °F 51.8 °F 82% 29.50 in 10.0 mi WSW 19.6 mph 29.9 mph N/A   Unknown
6:35 AM 57.2 °F 50.0 °F 77% 29.53 in 10.0 mi SW 16.1 mph 24.2 mph N/A   Unknown
6:55 AM 57.2 °F 48.2 °F 72% 29.54 in 10.0 mi SW 21.9 mph 27.6 mph N/A   Unknown
7:15 AM 57.2 °F 48.2 °F 72% 29.56 in 10.0 mi SW 16.1 mph 24.2 mph N/A   Unknown
7:35 AM 55.4 °F 48.2 °F 77% 29.56 in 10.0 mi SW 16.1 mph 23.0 mph N/A   Unknown
7:55 AM 55.4 °F 48.2 °F 77% 29.58 in 10.0 mi SW 17.3 mph 25.3 mph N/A   Unknown
8:15 AM 55.4 °F 48.2 °F 77% 29.59 in 10.0 mi SW 23.0 mph 28.8 mph N/A   Unknown
8:35 AM 55.4 °F 48.2 °F 77% 29.60 in 10.0 mi SW 19.6 mph 26.5 mph N/A   Unknown
8:55 AM 55.4 °F 48.2 °F 77% 29.61 in 10.0 mi SW 18.4 mph 27.6 mph N/A   Unknown
9:15 AM 57.2 °F 46.4 °F 67% 29.62 in 10.0 mi SW 19.6 mph 33.4 mph N/A   Unknown
9:35 AM 57.2 °F 48.2 °F 72% 29.63 in 10.0 mi SW 15.0 mph 31.1 mph N/A   Unknown
9:55 AM 57.2 °F 46.4 °F 67% 29.64 in 7.0 mi SW 19.6 mph 29.9 mph N/A   Unknown
10:15 AM 57.2 °F 46.4 °F 67% 29.65 in 10.0 mi SW 19.6 mph 27.6 mph N/A   Unknown
10:35 AM 57.2 °F 46.4 °F 67% 29.65 in 10.0 mi SW 19.6 mph 33.4 mph N/A   Unknown
10:55 AM 59.0 °F 46.4 °F 63% 29.65 in 10.0 mi SW 20.7 mph 33.4 mph N/A   Unknown
11:15 AM 59.0 °F 46.4 °F 63% 29.65 in 10.0 mi SW 20.7 mph 28.8 mph N/A   Unknown
11:35 AM 59.0 °F 46.4 °F 63% 29.65 in 10.0 mi SW 23.0 mph 31.1 mph N/A   Unknown
11:55 AM 60.8 °F 46.4 °F 59% 29.65 in 10.0 mi WSW 21.9 mph 27.6 mph N/A   Unknown
12:15 PM 60.8 °F 46.4 °F 59% 29.65 in 10.0 mi SW 23.0 mph 28.8 mph N/A   Unknown
12:35 PM 60.8 °F 46.4 °F 59% 29.66 in 10.0 mi SW 21.9 mph 27.6 mph N/A   Unknown
12:55 PM 60.8 °F 46.4 °F 59% 29.66 in 10.0 mi WSW 24.2 mph 32.2 mph N/A   Unknown
1:15 PM 60.8 °F 44.6 °F 55% 29.65 in 10.0 mi SW 12.7 mph 32.2 mph N/A   Unknown
1:35 PM 60.8 °F 46.4 °F 59% 29.65 in 10.0 mi SW 19.6 mph 28.8 mph N/A   Unknown
1:55 PM 62.6 °F 46.4 °F 55% 29.65 in 10.0 mi SSW 19.6 mph 27.6 mph N/A   Unknown
2:15 PM 60.8 °F 46.4 °F 59% 29.65 in 10.0 mi SW 16.1 mph 27.6 mph N/A   Unknown
2:35 PM 62.6 °F 46.4 °F 55% 29.66 in 10.0 mi SW 17.3 mph 29.9 mph N/A   Unknown
2:55 PM 62.6 °F 44.6 °F 52% 29.67 in 10.0 mi SW 19.6 mph 33.4 mph N/A   Unknown
3:15 PM 62.6 °F 44.6 °F 52% 29.67 in 10.0 mi SW 18.4 mph 31.1 mph N/A   Unknown
3:35 PM 62.6 °F 46.4 °F 55% 29.67 in 10.0 mi SW 23.0 mph 29.9 mph N/A   Unknown
3:55 PM 62.6 °F 44.6 °F 52% 29.68 in 10.0 mi WSW 18.4 mph 32.2 mph N/A   Unknown
4:35 PM 60.8 °F 46.4 °F 59% 29.69 in 10.0 mi WSW 16.1 mph 23.0 mph N/A   Unknown
4:55 PM 60.8 °F 44.6 °F 55% 29.70 in 10.0 mi SW 20.7 mph 26.5 mph N/A   Unknown
5:15 PM 60.8 °F 44.6 °F 55% 29.71 in 10.0 mi WSW 13.8 mph 23.0 mph N/A   Unknown
5:35 PM 60.8 °F 44.6 °F 55% 29.72 in 10.0 mi SW 11.5 mph - N/A   Unknown
5:55 PM 60.8 °F 44.6 °F 55% 29.73 in 10.0 mi WSW 11.5 mph 19.6 mph N/A   Unknown
6:35 PM 59.0 °F 44.6 °F 59% 29.76 in 10.0 mi WSW 11.5 mph 18.4 mph N/A   Unknown
6:55 PM 59.0 °F 44.6 °F 59% 29.77 in 10.0 mi SW 17.3 mph 20.7 mph N/A   Unknown
7:15 PM 57.2 °F 44.6 °F 63% 29.78 in 10.0 mi WSW 13.8 mph 20.7 mph N/A   Unknown
7:35 PM 57.2 °F 44.6 °F 63% 29.79 in 10.0 mi WSW 11.5 mph 20.7 mph N/A   Unknown
8:15 PM 57.2 °F 42.8 °F 59% 29.80 in 10.0 mi WSW 16.1 mph 26.5 mph N/A   Unknown
8:35 PM 57.2 °F 44.6 °F 63% 29.81 in 10.0 mi WSW 13.8 mph 20.7 mph N/A   Unknown
9:15 PM 57.2 °F 44.6 °F 63% 29.82 in 10.0 mi WSW 15.0 mph 24.2 mph N/A   Unknown
9:35 PM 57.2 °F 44.6 °F 63% 29.83 in 10.0 mi WSW 15.0 mph 24.2 mph N/A   Unknown
9:55 PM 57.2 °F 44.6 °F 63% 29.84 in 10.0 mi WSW 12.7 mph 21.9 mph N/A   Unknown
10:15 PM 57.2 °F 44.6 °F 63% 29.85 in 10.0 mi WSW 11.5 mph 20.7 mph N/A   Unknown
10:35 PM 57.2 °F 44.6 °F 63% 29.85 in 10.0 mi WSW 13.8 mph 18.4 mph N/A   Unknown
10:55 PM 57.2 °F 44.6 °F 63% 29.86 in 10.0 mi WSW 15.0 mph 24.2 mph N/A   Unknown
11:15 PM 57.2 °F 44.6 °F 63% 29.86 in 10.0 mi WSW 12.7 mph 17.3 mph N/A   Unknown
11:35 PM 57.2 °F 44.6 °F 63% 29.86 in 10.0 mi WSW 13.8 mph 19.6 mph N/A   Unknown
11:55 PM 57.2 °F 44.6 °F 63% 29.86 in 10.0 mi West 16.1 mph 25.3 mph N/A   Unknown